GALAXY 17 (G-17)

Last updated on Tue Sep 16 2025 00:02:46 GMT+0000 (Coordinated Universal Time)

1 31307U 07016B 25258.56767588 -.00000223 00000+0 00000+0 0 9998 2 31307 2.2718 83.3923 0004550 141.8215 248.9369 1.00271193 67053
UTC large
Height (km)
Speed (km/s)
/
Latitude / Longitude
Inclination (degrees)
Orbital Period (minutes)
Azimuth
Elevation
Range (km)
Doppler Factor

Next 0 passes for location: London (51.5072 / 0.1276)

Sorry there are no passes over London.